When you browse on this site, cookies collect data to enhance your experience and personalize the content and advertising you see.
Visit our Privacy Policy to learn more. By continuing to use the site, you agree to this use of cookies and data.
  • Em Portugal
  • Lista de países
  • Para 7 dias
  • Temperatura da água
  • Mapa do tempo
  • Widgets de tempo
  • user-avatar
    Iniciar Sessão

    Previsão horária em Mostoles

    Hoje, 24 Agosto, Sábado

    Tempo Temperatura Precipitação Vento Pressão Humidade
    00:00 +25°C° 0 mm 2 m/s 706 mmHg 25%
    01:00 +24°C° 0 mm 2 m/s 706 mmHg 30%
    02:00 +23°C° 0 mm 2 m/s 706 mmHg 34%
    03:00 +23°C° 0 mm 2 m/s 706 mmHg 38%
    04:00 +21°C° 0 mm 2 m/s 706 mmHg 41%
    05:00 +21°C° 0 mm 2 m/s 706 mmHg 43%
    06:00 +21°C° 0 mm 2 m/s 706 mmHg 46%
    07:00 +24°C° 0 mm 2 m/s 706 mmHg 41%
    08:00 +26°C° 0 mm 2 m/s 706 mmHg 36%
    09:00 +28°C° 0 mm 2 m/s 707 mmHg 32%
    10:00 +29°C° 0 mm 2 m/s 706 mmHg 27%
    11:00 +31°C° 0 mm 2 m/s 706 mmHg 23%
    12:00 +34°C° 0 mm 2 m/s 706 mmHg 19%
    13:00 +34°C° 0 mm 2 m/s 706 mmHg 18%
    14:00 +35°C° 0 mm 2 m/s 705 mmHg 16%
    15:00 +35°C° 0 mm 1 m/s 705 mmHg 15%
    16:00 +36°C° 0 mm 2 m/s 704 mmHg 15%
    17:00 +35°C° 0 mm 2 m/s 704 mmHg 15%
    18:00 +35°C° 0 mm 2 m/s 704 mmHg 16%
    19:00 +32°C° 0 mm 2 m/s 704 mmHg 17%
    20:00 +31°C° 0 mm 2 m/s 704 mmHg 19%
    21:00 +29°C° 0 mm 1 m/s 704 mmHg 21%
    22:00 +28°C° 0 mm 2 m/s 704 mmHg 23%
    23:00 +27°C° 0 mm 3 m/s 704 mmHg 26%

    Amanhã, 25 Agosto, Domingo

    Tempo Temperatura Precipitação Vento Pressão Humidade
    00:00 +26°C° 0 mm 4 m/s 704 mmHg 28%
    01:00 +25°C° 0 mm 4 m/s 704 mmHg 35%
    02:00 +23°C° 0 mm 4 m/s 703 mmHg 42%
    03:00 +24°C° 0 mm 3 m/s 703 mmHg 49%
    04:00 +22°C° 0 mm 4 m/s 703 mmHg 50%
    05:00 +22°C° 0 mm 4 m/s 703 mmHg 52%
    06:00 +22°C° 0 mm 4 m/s 703 mmHg 54%
    07:00 +23°C° 0 mm 4 m/s 704 mmHg 48%
    08:00 +26°C° 0 mm 4 m/s 704 mmHg 43%
    09:00 +28°C° 0 mm 4 m/s 704 mmHg 37%
    10:00 +29°C° 0 mm 4 m/s 704 mmHg 33%
    11:00 +32°C° 0 mm 4 m/s 704 mmHg 29%
    12:00 +34°C° 0 mm 4 m/s 703 mmHg 24%
    13:00 +34°C° 0 mm 4 m/s 703 mmHg 22%
    14:00 +35°C° 0 mm 5 m/s 703 mmHg 20%
    15:00 +36°C° 0 mm 5 m/s 702 mmHg 18%
    16:00 +35°C° 0 mm 6 m/s 702 mmHg 18%
    17:00 +34°C° 0 mm 6 m/s 702 mmHg 18%
    18:00 +34°C° 0 mm 7 m/s 702 mmHg 19%
    19:00 +32°C° 0 mm 6 m/s 702 mmHg 23%
    20:00 +29°C° 0 mm 6 m/s 702 mmHg 27%
    21:00 +27°C° 0 mm 6 m/s 703 mmHg 31%
    22:00 +26°C° 0 mm 6 m/s 703 mmHg 36%
    23:00 +25°C° 0 mm 5 m/s 703 mmHg 42%

    Depois de amanhã, 26 Agosto, Segunda-feira

    Tempo Temperatura Precipitação Vento Pressão Humidade
    00:00 +23°C° 0 mm 5 m/s 703 mmHg 47%
    01:00 +23°C° 0.1 mm 5 m/s 702 mmHg 48%
    02:00 +22°C° 0.1 mm 5 m/s 702 mmHg 48%
    03:00 +22°C° 0.1 mm 5 m/s 702 mmHg 49%
    04:00 +21°C° 0.4 mm 5 m/s 702 mmHg 52%
    05:00 +21°C° 0.4 mm 5 m/s 702 mmHg 55%
    06:00 +20°C° 0.4 mm 5 m/s 702 mmHg 59%
    07:00 +22°C° 0.1 mm 5 m/s 702 mmHg 55%
    08:00 +23°C° 0.1 mm 5 m/s 702 mmHg 52%
    09:00 +25°C° 0.1 mm 5 m/s 702 mmHg 48%
    10:00 +27°C° 0 mm 5 m/s 702 mmHg 44%
    11:00 +28°C° 0 mm 5 m/s 703 mmHg 39%
    12:00 +30°C° 0 mm 5 m/s 703 mmHg 35%
    13:00 +30°C° 0.1 mm 5 m/s 702 mmHg 34%
    14:00 +30°C° 0.1 mm 5 m/s 702 mmHg 33%
    15:00 +30°C° 0.1 mm 5 m/s 701 mmHg 32%
    16:00 +29°C° 0.2 mm 6 m/s 701 mmHg 35%
    17:00 +29°C° 0.2 mm 7 m/s 702 mmHg 38%
    18:00 +28°C° 0.2 mm 7 m/s 702 mmHg 41%
    19:00 +26°C° 1.3 mm 6 m/s 702 mmHg 48%
    20:00 +23°C° 1.3 mm 5 m/s 702 mmHg 55%
    21:00 +21°C° 1.3 mm 3 m/s 703 mmHg 62%
    22:00 +21°C° 0.2 mm 3 m/s 703 mmHg 63%
    23:00 +20°C° 0.2 mm 2 m/s 703 mmHg 64%

    27 Agosto, Terça-feira

    Tempo Temperatura Precipitação Vento Pressão Humidade
    00:00 +20°C° 0.2 mm 2 m/s 703 mmHg 65%
    01:00 +20°C° 0.2 mm 2 m/s 703 mmHg 67%
    02:00 +20°C° 0.2 mm 3 m/s 702 mmHg 69%
    03:00 +19°C° 0.2 mm 3 m/s 702 mmHg 71%
    04:00 +19°C° 0 mm 3 m/s 702 mmHg 72%
    05:00 +19°C° 0 mm 3 m/s 702 mmHg 74%
    06:00 +19°C° 0 mm 3 m/s 703 mmHg 75%
    07:00 +20°C° 0 mm 2 m/s 703 mmHg 70%
    08:00 +21°C° 0 mm 2 m/s 703 mmHg 64%
    09:00 +23°C° 0 mm 2 m/s 704 mmHg 59%
    10:00 +25°C° 0 mm 2 m/s 704 mmHg 53%
    11:00 +26°C° 0 mm 1 m/s 704 mmHg 46%
    12:00 +28°C° 0 mm 1 m/s 704 mmHg 40%
    13:00 +29°C° 0 mm 1 m/s 703 mmHg 37%
    14:00 +29°C° 0 mm 1 m/s 703 mmHg 33%
    15:00 +30°C° 0 mm 1 m/s 703 mmHg 30%
    16:00 +30°C° 0 mm 1 m/s 703 mmHg 30%
    17:00 +30°C° 0 mm 1 m/s 703 mmHg 30%
    18:00 +30°C° 0 mm 1 m/s 703 mmHg 30%
    19:00 +29°C° 0 mm 1 m/s 703 mmHg 32%
    20:00 +28°C° 0 mm 1 m/s 704 mmHg 34%
    21:00 +27°C° 0 mm 2 m/s 704 mmHg 36%
    22:00 +27°C° 0 mm 2 m/s 704 mmHg 37%
    23:00 +26°C° 0 mm 1 m/s 704 mmHg 38%

    28 Agosto, Quarta-feira

    Tempo Temperatura Precipitação Vento Pressão Humidade
    00:00 +25°C° 0 mm 1 m/s 704 mmHg 39%
    01:00 +25°C° 0 mm 1 m/s 704 mmHg 41%
    02:00 +24°C° 0 mm 2 m/s 704 mmHg 42%
    03:00 +24°C° 0 mm 2 m/s 703 mmHg 44%
    04:00 +23°C° 0 mm 2 m/s 704 mmHg 46%
    05:00 +23°C° 0 mm 2 m/s 704 mmHg 47%
    06:00 +23°C° 0 mm 1 m/s 704 mmHg 49%
    07:00 +24°C° 0 mm 1 m/s 704 mmHg 45%
    08:00 +26°C° 0 mm 1 m/s 705 mmHg 41%
    09:00 +28°C° 0 mm 1 m/s 705 mmHg 36%
    10:00 +29°C° 0 mm 1 m/s 705 mmHg 33%
    11:00 +30°C° 0 mm 1 m/s 705 mmHg 30%
    12:00 +31°C° 0 mm 2 m/s 705 mmHg 27%
    13:00 +32°C° 0 mm 2 m/s 704 mmHg 25%
    14:00 +34°C° 0 mm 2 m/s 704 mmHg 24%
    15:00 +34°C° 0 mm 2 m/s 704 mmHg 22%
    16:00 +34°C° 0 mm 2 m/s 703 mmHg 23%
    17:00 +34°C° 0 mm 2 m/s 703 mmHg 23%
    18:00 +32°C° 0 mm 2 m/s 703 mmHg 23%
    19:00 +31°C° 0 mm 1 m/s 703 mmHg 25%
    20:00 +30°C° 0 mm 1 m/s 704 mmHg 27%
    21:00 +29°C° 0 mm 1 m/s 704 mmHg 29%
    22:00 +28°C° 0 mm 1 m/s 704 mmHg 30%
    23:00 +28°C° 0 mm 1 m/s 704 mmHg 31%

    29 Agosto, Quinta-feira

    Tempo Temperatura Precipitação Vento Pressão Humidade
    00:00 +27°C° 0 mm 1 m/s 704 mmHg 33%
    01:00 +27°C° 0 mm 1 m/s 704 mmHg 34%
    02:00 +26°C° 0 mm 2 m/s 704 mmHg 36%
    03:00 +25°C° 0 mm 2 m/s 704 mmHg 37%
    04:00 +25°C° 0 mm 2 m/s 704 mmHg 41%
    05:00 +24°C° 0 mm 2 m/s 704 mmHg 45%
    06:00 +24°C° 0 mm 3 m/s 704 mmHg 49%
    07:00 +25°C° 0 mm 3 m/s 704 mmHg 46%
    08:00 +27°C° 0 mm 2 m/s 704 mmHg 42%
    09:00 +29°C° 0 mm 2 m/s 704 mmHg 39%
    10:00 +30°C° 0 mm 2 m/s 704 mmHg 34%
    11:00 +32°C° 0 mm 2 m/s 704 mmHg 30%
    12:00 +34°C° 0 mm 2 m/s 704 mmHg 25%
    13:00 +35°C° 0 mm 2 m/s 704 mmHg 23%
    14:00 +35°C° 0 mm 2 m/s 704 mmHg 22%
    15:00 +36°C° 0 mm 2 m/s 703 mmHg 20%
    16:00 +36°C° 0 mm 2 m/s 703 mmHg 21%
    17:00 +35°C° 0 mm 2 m/s 703 mmHg 21%
    18:00 +34°C° 0 mm 1 m/s 703 mmHg 21%
    19:00 +33°C° 0 mm 1 m/s 703 mmHg 23%
    20:00 +32°C° 0 mm 1 m/s 703 mmHg 25%
    21:00 +30°C° 0 mm 1 m/s 703 mmHg 27%
    22:00 +30°C° 0 mm 1 m/s 703 mmHg 28%
    23:00 +29°C° 0 mm 2 m/s 703 mmHg 29%
    Mostrar mais